Location: Tehachapi Municipal Airport
(35.1300°N, 118.4400°W)
Time: 08:20:14
(UTC-07:00)

BREEZE M DEB (TANK) - Visible Passes

Search period start: 29 May 2016 00:00
Search period end: 08 June 2016 00:00
Orbit: 293 x 12030 km, 49.5° (Epoch: 27 May)

Date Brightness Start Highest point End Pass type
(mag) Time Alt. Az. Time Alt. Az. Time Alt. Az.
29 May 7.4 01:42:43 10° NW 02:24:42 22° W 02:37:42 17° WSW visible
29 May 7.2 19:41:56 10° WNW 21:29:43 78° NNE 22:02:12 20° ESE visible
30 May 7.2 00:44:06 10° NW 01:42:45 32° W 01:55:06 25° SW visible
30 May 7.4 18:51:05 10° W 20:35:51 73° NNE 21:19:37 11° ESE visible
30 May 6.9 23:47:31 10° NW 00:59:59 43° W 01:12:32 33° SW visible
31 May 7.7 18:01:31 10° W 19:38:02 69° NNE 20:33:52 10° E visible
31 May 6.8 22:52:07 10° NW 00:16:13 55° WSW 00:29:58 38° SSW visible
01 Jun 6.7 21:57:36 10° NW 23:31:15 67° WSW 23:47:26 39° S visible
02 Jun 6.8 21:03:54 10° WNW 22:44:48 78° SW 23:04:55 34° SSE visible
03 Jun 6.9 20:11:08 10° WNW 21:56:37 89° SW 22:22:24 27° SE visible
04 Jun 7.6 01:20:01 10° NW 01:57:29 18° W 02:15:19 11° WSW visible
04 Jun 7.1 19:19:22 10° WNW 21:06:16 83° NE 21:39:55 18° SE visible
05 Jun 7.4 00:19:42 10° NW 01:15:52 28° W 01:32:50 18° SW visible
05 Jun 7.4 18:28:43 10° WNW 20:13:09 76° NNE 20:57:16 10° ESE visible
05 Jun 7.2 23:22:39 10° NW 00:33:27 38° W 00:50:21 25° SW visible
06 Jun 7.0 22:27:20 10° NW 23:50:05 49° WSW 00:07:53 30° SSW visible
07 Jun 6.9 21:33:11 10° NW 23:05:31 61° WSW 23:25:26 31° S visible
